Location: Casabiti
(42.4478°N, 9.2869°E)
Time: 21:10:46
(UTC+00:00)

Daily predictions for brighter satellites

Satellite Brightness Start Highest point End
(mag) Time Altitude Azimuth Time Altitude Azimuth Time Altitude Azimuth
Meteor 1-21 4.2 17:32:26 10° N 17:38:04 80° E 17:43:40 10° SSE
Cosmos 1975 Rocket 3.0 17:37:00 10° N 17:41:21 76° E 17:45:39 10° SSE
Cosmos 2233 Rocket 4.5 17:37:53 10° SSW 17:44:04 68° W 17:50:14 10° N
Shenzhou-11 Module 2.9 17:48:28 10° SSW 17:50:05 19° SSE 17:51:33 11° ESE
COSMO-SKYMED 1 3.1 17:46:51 10° N 17:51:10 64° WNW 17:55:27 10° SSW
Ariane Rocket 4.5 17:48:44 10° ESE 17:52:04 18° ENE 17:55:24 10° NNE
H-2A R/B 2.5 17:48:07 10° SE 17:52:41 38° ENE 17:57:24 10° N
SJ 16-02 4.4 17:51:59 10° W 17:54:24 14° WNW 17:56:49 10° NNW
Cosmos 1689 Rocket 4.4 17:52:14 10° N 17:54:53 29° WNW 17:57:30 10° SW
Exosat Rocket 4.3 17:51:41 10° SSE 17:56:34 31° ESE 18:00:57 10° NE
Cosmos 2263 Rocket 4.0 17:52:38 10° WSW 17:57:37 33° NW 18:02:40 10° N
Cosmos 1939 Rocket 3.9 17:56:37 10° S 18:00:39 53° W 18:04:44 10° NNW
USA 116 3.8 17:57:40 10° NNE 18:01:23 59° ESE 18:05:34 10° S
Cosmos 1844 Rocket 2.7 17:56:24 10° S 18:01:52 61° ESE 18:07:23 10° NNE
Cosmos 1072 Rocket 4.5 17:55:48 10° S 18:02:00 70° E 18:08:21 10° NNE
Cosmos 372 Rocket 4.3 17:58:31 10° SSW 18:03:44 74° WNW 18:08:59 10° NNE
Cosmos 1707 2.6 18:02:35 10° N 18:06:27 81° E 18:10:16 10° S
Cosmos 2278 Rocket4.118:09:59ENE18:09:59ENE18:03:58ESE
Cosmos 1626 4.3 18:07:02 10° ENE 18:07:28 10° ENE 18:07:28 10° ENE
CZ-2C R/B 3.2 18:05:10 10° WSW 18:07:50 18° SSW 18:10:22 10° SSE
NOSS 3-2 (C) 4.3 18:00:48 10° NNW 18:08:09 54° NE 18:16:08 11° ESE
Cosmos 1844 3.8 18:03:46 10° S 18:09:19 56° ESE 18:14:50 10° NNE
Cosmos 2034 Rocket 4.2 18:03:25 10° SSE 18:09:33 52° E 18:15:40 10° NNE
NOSS 3-4 (A) 3.9 18:05:33 10° S 18:10:48 35° ESE 18:16:18 10° NE
NOSS 3-4 (C) 3.9 18:05:41 10° S 18:10:54 35° ESE 18:16:23 10° NE
ISS -1.7 18:08:31 10° WNW 18:11:17 23° NNW 18:14:04 10° NE
USA 186 3.3 18:11:04 17° E 18:11:49 18° ENE 18:14:08 10° NNE
Meteor 1-12 Rocket 4.3 18:07:04 10° S 18:12:57 83° E 18:18:46 10° NNE
Cosmos 1300 Rocket 3.6 18:13:55 10° S 18:18:19 88° W 18:22:47 10° N
Okean 1 Rocket 3.8 18:17:37 10° SSE 18:21:36 32° E 18:25:37 10° NNE
Cosmos 2298 Rocket 4.3 18:19:42 10° SSW 18:25:01 72° WNW 18:30:22 10° NNE
Resurs 01 Rocket 3.8 18:25:52 10° NE 18:25:52 10° NE 18:25:57 10° NE
CENTAUR R/B 3.3 18:19:14 10° NNW 18:27:19 65° NE 18:34:46 15° SE
Cosmos 1833 Rocket 4.2 18:24:22 10° N 18:28:22 19° NE 18:30:11 17° ENE
CSL-04 Debris 4.2 18:23:22 10° SSE 18:28:44 82° WSW 18:34:09 10° NNW
CSL-04 Rocket 3.8 18:25:15 10° SSE 18:30:41 83° WSW 18:36:15 10° NNW
Cosmos 1766 3.9 18:29:05 10° SSE 18:32:37 33° E 18:36:12 10° NNE
Okean 2 Rocket 3.7 18:28:28 10° SSW 18:32:54 60° W 18:37:21 10° N
ATLAS 2AS CENTAUR R/B 3.1 18:25:33 10° S 18:33:07 52° ESE 18:40:45 10° NE
YAOGAN 1 3.7 18:29:17 10° S 18:33:26 46° W 18:37:36 10° NNW
Cosmos 1025 Rocket 3.3 18:31:29 10° NNW 18:35:53 71° W 18:40:14 10° S
Cosmos 1634 Rocket 4.4 18:31:47 10° SSE 18:37:22 37° E 18:42:59 10° NNE
ATLAS 3B R/B 3.7 18:33:18 10° NNW 18:39:14 30° NE 18:42:34 21° E
Abrixas rocket 2.3 18:39:08 10° NW 18:41:54 45° NNE 18:42:11 43° NE
SWAS 4.3 18:37:35 10° NNW 18:41:54 86° ENE 18:44:39 21° SSE
CREW DRAGON DEMO-1 DEB 3.2 18:41:02 10° NW 18:43:58 46° NNE 18:44:16 44° NE
Cosmos 1125 Rocket 3.7 18:40:21 10° SSW 18:45:39 77° WNW 18:51:00 10° NNE
Cosmos 1536 Rocket 3.7 18:41:13 10° NNW 18:45:41 76° W 18:50:08 10° S
SJ-6B 3.1 18:48:31 40° E 18:48:42 40° ENE 18:52:17 10° N
CZ-4 R/B 3.9 18:47:44 10° SSW 18:51:10 24° W 18:54:35 10° NW
CZ-2C R/B 4.2 18:47:58 10° S 18:53:06 48° W 18:58:32 10° NNW
Cosmos 2195 Rocket 4.5 18:49:56 10° N 18:56:06 60° E 19:00:07 22° SSE
Cosmos 2285 Rocket 4.0 18:49:58 10° SSW 18:56:18 85° WNW 19:02:41 10° NNE
USA 238 DEB 4.2 18:49:17 10° NW 18:56:30 67° WSW 19:03:15 13° SSE
USA 238 4.2 18:49:23 10° NW 18:56:36 67° WSW 19:03:18 13° SSE
Cosmos 1674 2.7 18:54:11 10° N 18:58:02 78° W 19:00:17 23° S
Cosmos 2026 Rocket 4.1 18:52:44 10° N 18:58:59 54° ENE 19:02:16 28° SE
Cosmos 1092 Rocket 3.9 18:53:00 10° N 18:59:11 71° E 19:04:17 16° SSE
MOS 1 Rocket 4.1 18:59:57 10° N 19:04:08 47° WNW 19:08:14 10° SSW
Cosmos 1428 Rocket 4.5 19:01:22 10° N 19:07:32 59° E 19:10:06 35° SE
TSX-5 3.9 19:03:57 10° SSW 19:07:40 83° WNW 19:12:27 10° NNE
ARGOS 3.6 19:03:22 10° S 19:08:38 60° W 19:13:58 10° NNW
Cosmos 1340 Rocket 4.3 19:15:11 26° NNE 19:15:11 26° NNE 19:17:02 10° NNE
Cosmos 2279 Rocket 4.2 19:12:58 43° ESE 19:13:51 45° E 19:19:46 10° NNE
CZ-2C R/B 2.6 19:08:56 10° NNE 19:14:33 87° ESE 19:20:11 10° SSW
Cosmos 1733 3.2 19:13:48 48° SSW 19:14:47 80° W 19:18:38 10° N
MOS 1 4.2 19:13:05 31° SSE 19:15:59 84° ENE 19:21:44 10° NNW
Lacrosse 5 rocket 3.7 19:17:18 10° NNW 19:19:58 15° NNE 19:20:43 15° NNE
Cosmos 2082 Rocket 3.3 19:16:53 10° N 19:21:17 27° NE 19:21:17 27° NE
BREEZE-M R/B 4.4 19:14:27 10° W 19:23:29 47° NNW 19:24:25 37° NNE
BREEZE-M DEB (TANK) 3.8 19:20:15 10° WNW 19:23:56 58° SSW 19:27:36 33° SSE
DMSP B5D2-2 4.0 19:19:03 10° NNE 19:24:22 89° WNW 19:29:39 10° SSW
OBJECT-B 3.2 19:28:48 18° N 19:28:48 18° N 19:29:43 10° N
Cosmos 2142 Rocket 4.4 19:24:38 33° SSE 19:27:31 68° E 19:33:41 10° NNE
Ariane Rocket 3.4 19:28:06 30° S 19:30:30 61° WSW 19:35:34 10° NNW
H-2A R/B 4.0 19:28:05 10° SSW 19:32:13 26° W 19:36:27 10° NW
Milstar 3 Cent rocket 3.9 19:28:15 10° SW 19:32:39 20° S 19:32:39 20° S
USA 234 4.0 19:38:13 35° S 19:38:13 35° S 19:42:16 10° SSW
Cosmos 1269 Rocket 4.2 19:33:13 10° NNW 19:38:31 66° WSW 19:39:33 53° SSW
MetOp-A 4.5 19:40:20 42° SSW 19:42:01 63° WSW 19:47:22 10° NNW
USA 186 4.2 19:42:34 22° W 19:42:34 22° W 19:45:00 10° NW
Cosmos 1626 3.7 19:39:41 10° NNW 19:42:02 34° NW 19:42:02 34° NW
COSMOS 2406 3.1 19:42:09 10° NNW 19:47:51 87° WSW 19:47:55 86° SSW
ISS -0.9 19:46:37 10° NW 19:47:46 15° NNW 19:47:46 15° NNW
Cosmos 2278 Rocket 2.8 19:44:02 10° SSW 19:51:32 45° NNE 19:55:23 10° NNE
Lacrosse 4 Rocket 3.5 19:51:25 10° NNW 19:52:52 20° N 19:52:52 20° N
Meteor 1-24 Rocket 4.4 19:54:45 10° NNW 20:00:11 51° W 20:01:38 41° SW
Cosmos 909 Rocket 4.5 19:54:16 10° NNW 19:59:55 48° NNE 19:59:55 48° NNE
Resurs 01 Rocket 3.2 20:03:26 30° NNW 20:03:26 30° NNW 20:05:44 10° NNW
NOSS 3-4 (A) 4.4 19:55:53 10° WSW 20:01:30 43° NW 20:07:31 10° NNE
NOSS 3-4 (C) 4.4 19:55:59 10° WSW 20:01:36 44° NW 20:07:38 10° NNE
Meteor 2-19 Rocket 4.4 19:58:18 10° N 20:03:47 73° N 20:03:47 73° N
Cosmos 1833 Rocket 3.1 20:07:16 10° NNW 20:11:54 59° NW 20:11:54 59° NW
CENTAUR R/B 4.3 20:10:28 10° NW 20:17:53 36° WSW 20:22:00 24° SSW
ATLAS 2AS CENTAUR R/B 4.0 20:16:48 10° WSW 20:24:20 44° NW 20:31:49 10° NNE
ATLAS 3B R/B 2.9 20:23:37 10° NW 20:29:50 67° W 20:29:50 67° W
Cosmos 2082 Rocket 4.1 21:00:34 10° NW 21:03:08 26° NW 21:03:08 26° NW
